RH
34 34 33 32 31 27 26 26 32 41 39 38 44 42 44 44 43 44 41 42 39 38 35 33 36 38 37 37 36 35 32 28 21 15 17 19 21 23 18 19 19 15 13 13 13 18 18 20 21
36 35 34 33 37 29 27 28 33 38 40 44 43 41 41 44 42 38 37 36 37 34 34 35 38 40 38 38 36 36 33 29 29 30 24 22 20 22 24 19 18 17 14 13 14 15 16 16 17
39 36 37 38 39 35 29 31 31 34 36 38 44 41 42 41 41 39 37 36 37 35 34 36 40 43 42 38 36 35 32 32 30 30 34 32 29 29 26 24 17 18 16 14 13 14 15 15 15
38 40 39 40 37 35 32 32 29 31 33 38 37 39 44 41 39 38 36 37 38 36 36 38 40 42 44 40 39 36 33 32 32 32 35 35 40 38 34 24 20 18 16 13 14 14 14 15 16
37 39 45 43 39 35 36 35 32 33 34 39 39 38 43 44 40 38 37 39 39 38 37 40 43 45 46 41 40 39 36 32 31 31 33 33 37 42 42 38 30 21 14 13 14 15 15 16 16
39 38 45 47 41 36 39 39 37 34 36 34 35 37 41 44 45 44 44 42 41 39 39 44 44 49 48 43 41 40 37 34 31 30 30 29 32 37 42 40 36 29 25 24 24 23 23 22 23
39 42 42 41 44 42 40 41 36 37 37 34 33 36 41 45 45 45 46 45 42 42 40 42 43 46 47 44 43 41 39 36 32 27 25 25 27 29 31 32 30 31 32 33 32 33 33 34 35
40 43 42 40 41 44 43 42 39 37 37 34 28 34 37 46 45 47 47 45 46 44 42 40 45 47 46 43 44 45 40 36 32 27 24 25 26 27 24 23 26 29 32 35 37 39 40 40 40
43 49 47 39 37 37 45 46 44 41 38 37 32 30 33 38 44 46 46 44 45 46 43 37 46 49 46 47 46 48 43 36 33 29 26 25 28 30 28 29 29 29 30 30 32 34 35 37 38
46 49 42 33 31 32 44 49 47 42 41 38 37 32 33 35 37 39 40 40 41 40 40 41 45 52 50 49 48 48 44 39 35 34 33 33 32 34 35 35 37 36 35 34 36 36 37 37 36
44 46 41 35 33 32 36 45 49 45 42 41 38 38 35 34 34 35 36 36 36 36 39 46 47 52 51 49 49 48 46 42 40 40 38 36 36 37 38 40 41 40 38 41 42 40 42 42 40
45 40 44 40 37 37 38 40 45 45 42 44 40 38 41 37 34 35 33 34 34 37 39 48 53 54 54 52 50 50 51 46 42 42 41 40 40 41 44 43 46 47 44 43 43 43 43 43 38
48 43 41 42 40 41 40 40 43 42 46 47 43 39 37 41 36 36 38 30 28 32 37 44 53 55 57 55 52 51 52 49 47 47 45 43 44 45 47 49 48 48 46 44 44 44 43 37 31
46 47 47 45 41 42 42 39 44 40 43 47 45 40 38 35 35 35 36 30 28 30 33 40 55 56 58 56 55 53 53 52 52 50 50 51 49 48 47 47 50 50 48 46 45 38 30 28 30
52 52 51 47 46 48 48 42 39 39 41 42 45 42 36 36 35 34 33 28 24 28 31 38 56 58 58 57 56 56 56 53 53 51 51 50 51 48 50 52 54 50 48 41 33 29 30 30 29
61 57 59 47 50 49 53 40 37 40 40 40 45 43 38 38 38 34 37 32 22 24 29 39 51 55 57 56 56 57 56 53 52 51 49 50 48 52 53 54 52 42 36 33 33 32 29 25 21
69 67 60 56 50 56 55 39 38 41 41 40 42 45 43 40 36 32 31 33 26 25 31 40 48 50 53 54 56 57 53 52 50 50 51 52 54 56 56 46 39 36 35 34 31 26 21 18 18
65 63 58 56 59 58 54 46 48 43 41 41 43 44 44 41 36 33 31 34 32 26 30 37 45 46 48 52 56 55 54 51 51 52 51 56 54 46 42 38 37 37 34 29 25 19 18 18 19
65 64 60 61 63 60 60 55 55 52 44 40 42 41 44 40 38 36 32 30 32 29 25 28 32 38 42 50 53 52 50 50 53 53 51 41 42 38 38 40 38 34 29 24 19 17 17 18 18
61 66 64 61 62 63 62 60 58 49 45 46 44 45 46 42 41 38 34 32 30 31 29 27 30 36 45 50 50 51 50 53 54 47 38 35 37 40 40 38 35 32 25 20 18 19 20 20 19
64 64 62 61 53 55 63 53 55 49 48 47 45 46 47 46 42 39 37 36 32 32 34 34 36 41 46 51 52 53 53 51 44 38 37 40 41 41 40 37 32 26 23 20 22 23 21 21 21
71 65 64 63 67 68 64 65 55 52 48 47 44 47 46 47 45 42 40 40 36 36 37 38 40 45 50 50 51 51 46 41 39 40 41 42 42 40 38 33 28 26 26 25 24 24 23 22 22
74 71 69 69 72 77 60 78 51 53 50 44 38 43 43 50 47 44 42 42 38 40 41 42 44 47 47 47 46 43 38 39 43 45 46 44 40 37 34 32 30 32 29 27 26 25 24 23 23
81 83 82 81 81 85 53 68 49 50 44 43 43 43 46 51 48 45 47 45 38 42 44 45 45 47 45 41 39 39 41 44 47 49 46 41 40 37 35 35 37 35 31 28 26 26 24 23 23
82 87 94 97 92 73 57 67 48 43 44 40 44 43 46 52 47 46 46 46 42 44 42 44 42 42 40 39 39 42 45 49 50 48 45 42 41 38 40 41 40 36 31 28 26 25 24 23 24
84 81 87 92 90 66 65 70 51 38 43 47 46 47 52 51 47 46 47 49 45 43 41 40 38 37 39 41 43 45 48 51 49 48 47 47 44 44 44 43 40 36 31 28 26 25 24 25 25
83 93 64 85 82 87 67 60 44 42 48 48 46 46 44 48 47 48 49 49 47 44 44 42 39 38 42 44 45 47 50 50 50 49 50 52 52 48 46 44 41 37 31 28 27 26 26 27 27
74 69 90 87 93 78 69 69 49 41 51 51 49 50 49 50 51 51 50 48 47 47 45 43 40 40 42 44 46 48 52 52 51 49 52 60 55 49 46 45 42 36 31 29 28 28 29 28 25
86 88 81 67 70 88 70 62 35 44 53 55 57 54 50 50 50 50 49 48 45 44 44 44 46 46 47 49 50 52 55 54 52 54 60 64 55 50 49 44 40 34 30 30 30 30 29 26 23
81 71 71 76 63 64 94 71 43 35 45 60 64 55 52 50 48 49 49 48 46 45 46 47 50 52 52 52 53 56 55 55 60 62 62 68 57 50 44 41 37 32 32 32 31 31 27 23 20